Tracking 28790 objects as of 18-Apr-2024
HD Live streaming from Space Station
objects crossing your sky now

FENGYUN 1C DEB

Track FENGYUN 1C DEB now!
10-day predictions


NORAD ID: 32459
Int'l Code: 1999-025DBX
Perigee: 611.4 km
Apogee: 938.5 km
Inclination: 98.3 °
Period: 100.2 minutes
Semi major axis: 7145 km
RCS: 0.0076 m2 (small)
Launch date: May 10, 1999
Source: People's Republic of China (PRC)
Launch site: Taiyaun Space Center, China (TSC)

Note: This is SATELLITE DEBRIS
Your satellite tracking list
Your tracking list is empty




NASA's NSSDC Master Catalog

Two Line Element Set (TLE):
1 32459U 99025DBX 24106.53084770  .00002531  00000-0  64159-3 0  9994
2 32459  98.3413 130.9633 0228897 213.4462 145.2092 14.37191461858793
Source of the keplerian elements: AFSPC